This demonstration page uses our WeatherBlox Daily Observations layout. Learn more.

Hourly Observations for August 27, 2017

Temp ( °F °C ) Dew Point ( °F °C ) Humidity (%) Winds ( mph kmh ) Pressure ( in mb ) Visibility ( mi km ) Precip ( " mm )
12:15 am 00:15 Cloudy 66 19 63 17 88 88 Calm 30.27 1025 10 16.09344 0 0
12:35 am 00:35 Cloudy 64 18 63 17 94 94 Calm 30.27 1025 10 16.09344 0 0
12:55 am 00:55 Partly Cloudy 66 19 61 16 83 83 NE 5 7 30.27 1025 10 16.09344 0 0
1:15 am 01:15 Partly Cloudy 64 18 61 16 88 88 Calm 30.27 1025 10 16.09344 0 0
1:35 am 01:35 Clear 63 17 61 16 94 94 NNE 5 7 30.24 1024 10 16.09344 0 0
1:55 am 01:55 Clear 64 18 61 16 88 88 Calm 30.24 1024 10 16.09344 0 0
2:15 am 02:15 Clear 64 18 61 16 88 88 Calm 30.24 1024 10 16.09344 0 0
2:35 am 02:35 Clear 64 18 61 16 88 88 NNE 5 7 30.24 1024 10 16.09344 0 0
2:55 am 02:55 Clear 63 17 61 16 94 94 NNE 3 6 30.24 1024 10 16.09344 0 0
3:15 am 03:15 Clear 63 17 61 16 94 94 NNE 3 6 30.24 1024 10 16.09344 0 0
3:35 am 03:35 Clear 63 17 61 16 94 94 NNE 3 6 30.24 1024 10 16.09344 0 0
3:55 am 03:55 Clear 63 17 61 16 94 94 N 3 6 30.24 1024 10 16.09344 0 0
4:15 am 04:15 Clear 63 17 61 16 94 94 NNE 3 6 30.24 1024 10 16.09344 0 0
4:35 am 04:35 Clear 63 17 61 16 94 94 NNE 3 6 30.24 1024 10 16.09344 0 0
4:55 am 04:55 Clear 63 17 61 16 94 94 Calm 30.24 1024 10 16.09344 0 0
5:15 am 05:15 Mostly Cloudy 61 16 61 16 100 100 NNE 3 6 30.24 1024 10 16.09344 0 0
5:35 am 05:35 Cloudy 63 17 61 16 94 94 Calm 30.24 1024 10 16.09344 0 0
5:55 am 05:55 Mostly Cloudy 61 16 61 16 100 100 Calm 30.24 1024 10 16.09344 0 0
6:15 am 06:15 Mostly Cloudy 61 16 61 16 100 100 NNE 3 6 30.24 1024 10 16.09344 0 0
6:35 am 06:35 Cloudy 61 16 61 16 100 100 Calm 30.24 1024 10 16.09344 0 0
6:55 am 06:55 Mostly Cloudy 61 16 61 16 100 100 Calm 30.27 1025 10 16.09344 0 0
7:15 am 07:15 Mostly Cloudy 61 16 61 16 100 100 NNE 3 6 30.27 1025 10 16.09344 0 0
7:35 am 07:35 Mostly Cloudy 63 17 61 16 94 94 Calm 30.27 1025 10 16.09344 0 0
7:55 am 07:55 Partly Cloudy 63 17 61 16 94 94 NE 3 6 30.27 1025 10 16.09344 0 0
8:15 am 08:15 Partly Cloudy 64 18 61 16 88 88 NE 5 7 30.27 1025 10 16.09344 0 0
8:35 am 08:35 Sunny 64 18 61 16 88 88 Calm 30.27 1025 10 16.09344 0 0
8:55 am 08:55 Partly Cloudy 66 19 61 16 83 83 NE 3 6 30.27 1025 10 16.09344 0 0
9:15 am 09:15 Mostly Cloudy 68 20 63 17 83 83 Calm 30.27 1025 10 16.09344 0 0
9:35 am 09:35 Partly Cloudy 68 20 63 17 83 83 NE 3 6 30.27 1025 10 16.09344 0 0
9:55 am 09:55 Sunny 70 21 63 17 78 78 Calm 30.27 1025 10 16.09344 0 0
10:15 am 10:15 Sunny 72 22 64 18 78 78 E 3 6 30.27 1025 10 16.09344 0 0
10:35 am 10:35 Sunny 72 22 64 18 78 78 SE 3 6 30.27 1025 10 16.09344 0 0
10:55 am 10:55 Partly Cloudy 73 23 63 17 69 69 Calm 30.27 1025 10 16.09344 0 0
11:15 am 11:15 Mostly Cloudy 73 23 63 17 69 69 E 3 6 30.27 1025 10 16.09344 0 0
11:35 am 11:35 Cloudy 73 23 61 16 65 65 SSE 6 9 30.27 1025 10 16.09344 0 0
11:55 am 11:55 Cloudy 73 23 59 15 61 61 SE 5 7 30.27 1025 10 16.09344 0 0
12:15 pm 12:15 Cloudy 73 23 59 15 61 61 SSE 6 9 30.27 1025 10 16.09344 0 0
12:35 pm 12:35 Mostly Cloudy 75 24 59 15 57 57 SE 6 9 30.27 1025 10 16.09344 0 0
12:55 pm 12:55 Partly Cloudy 75 24 59 15 57 57 ENE 7 11 30.27 1025 10 16.09344 0 0
1:15 pm 13:15 Sunny 77 25 59 15 54 54 ENE 7 11 30.24 1024 10 16.09344 0 0
1:35 pm 13:35 Sunny 77 25 57 14 51 51 E 8 13 30.24 1024 10 16.09344 0 0
1:55 pm 13:55 Sunny 77 25 57 14 51 51 ESE 3 6 30.24 1024 10 16.09344 0 0
2:15 pm 14:15 Partly Cloudy 77 25 57 14 51 51 ESE 5 7 30.24 1024 10 16.09344 0 0
2:35 pm 14:35 Partly Cloudy 77 25 59 15 54 54 ESE 9 15 30.21 1023 10 16.09344 0 0
2:55 pm 14:55 Partly Cloudy 77 25 57 14 51 51 ENE 8 13 30.21 1023 10 16.09344 0 0
3:15 pm 15:15 Sunny 79 26 57 14 48 48 ENE 9 15 30.21 1023 10 16.09344 0 0
3:35 pm 15:35 Sunny 79 26 57 14 48 48 E 3 6 30.21 1023 10 16.09344 0 0
3:55 pm 15:55 Partly Cloudy 79 26 55 13 45 45 ENE 8 13 30.21 1023 10 16.09344 0 0
4:15 pm 16:15 Partly Cloudy 77 25 55 13 47 47 ENE 7 11 30.21 1023 10 16.09344 0 0
4:35 pm 16:35 Partly Cloudy 77 25 55 13 47 47 E 7 11 30.21 1023 10 16.09344 0 0
4:55 pm 16:55 Partly Cloudy 77 25 55 13 47 47 E 5 7 30.21 1023 10 16.09344 0 0
5:15 pm 17:15 Partly Cloudy 77 25 55 13 47 47 ESE 6 9 30.21 1023 10 16.09344 0 0
5:35 pm 17:35 Sunny 77 25 55 13 47 47 E 6 9 30.21 1023 10 16.09344 0 0
5:55 pm 17:55 Sunny 77 25 55 13 47 47 ESE 9 15 30.18 1022 10 16.09344 0 0
6:15 pm 18:15 Sunny 77 25 55 13 47 47 ESE 7 11 30.18 1022 10 16.09344 0 0
6:35 pm 18:35 Sunny 75 24 55 13 50 50 ESE 6 9 30.18 1022 10 16.09344 0 0
6:55 pm 18:55 Sunny 73 23 55 13 53 53 E 7 11 30.18 1022 10 16.09344 0 0
7:15 pm 19:15 Sunny 73 23 55 13 53 53 ESE 6 9 30.18 1022 10 16.09344 0 0
7:35 pm 19:35 Sunny 72 22 55 13 57 57 ESE 5 7 30.21 1023 10 16.09344 0 0
7:55 pm 19:55 Clear 72 22 55 13 57 57 ESE 6 9 30.21 1023 10 16.09344 0 0
8:15 pm 20:15 Clear 72 22 55 13 57 57 ESE 5 7 30.21 1023 10 16.09344 0 0
8:35 pm 20:35 Clear 70 21 55 13 60 60 Calm 30.21 1023 10 16.09344 0 0
8:55 pm 20:55 Clear 70 21 55 13 60 60 ESE 3 6 30.24 1024 10 16.09344 0 0
9:15 pm 21:15 Clear 70 21 55 13 60 60 Calm 30.24 1024 10 16.09344 0 0
9:35 pm 21:35 Clear 68 20 57 14 69 69 Calm 30.24 1024 10 16.09344 0 0
9:55 pm 21:55 Clear 63 17 59 15 88 88 Calm 30.24 1024 10 16.09344 0 0
10:15 pm 22:15 Clear 63 17 59 15 88 88 Calm 30.24 1024 10 16.09344 0 0
10:35 pm 22:35 Clear 64 18 59 15 83 83 Calm 30.24 1024 10 16.09344 0 0
10:55 pm 22:55 Clear 63 17 59 15 88 88 Calm 30.24 1024 10 16.09344 0 0
11:15 pm 23:15 Clear 61 16 59 15 94 94 Calm 30.24 1024 10 16.09344 0 0
11:35 pm 23:35 Clear 61 16 59 15 94 94 Calm 30.24 1024 10 16.09344 0 0
11:55 pm 23:55 Clear 59 15 59 15 100 100 Calm 30.24 1024 10 16.09344 0 0

Powered by AerisWeather